Regional Weather Roundup
Issued by NWS

Home | Current Version | Previous Version | Text Only | Print | Product List | Glossary On
Versions: 1 2 3 4 5 6 7 8 9 10 11 12 13 14 15 16 17 18 19 20 21 22 23 24 25 26 27 28 29 30 31 32 33 34 35 36 37 38 39 40 41 42 43 44 45 46 47 48 49 50
000
ASUS43 KDTX 301901
RWRMI
MICHIGAN HOURLY REGIONAL WEATHER ROUNDUP
NATIONAL WEATHER SERVICE DETROIT/PONTIAC MI
300 PM EDT TUE SEP 30 2014

NOTE: "FAIR" INDICATES FEW OR NO CLOUDS BELOW 12,000 FEET WITH NO
SIGNIFICANT WEATHER AND/OR OBSTRUCTION TO VISIBILITY.

MIZ047>049-052>055-059>063-066>070-074>076-081>083-302000-
SOUTHEAST LOWER MICHIGAN

CITY           SKY/WX    TMP DP  RH WIND       PRES   REMARKS
ADRIAN         CLOUDY    57  48  72 NE9       29.98F
ALMA           CLOUDY    54  47  76 N6        30.02S
ANN ARBOR      CLOUDY    58  47  66 NW5       29.97S
BAD AXE        CLOUDY    51  51 100 N15G21    29.98S FOG
CARO           DRIZZLE   52  50  93 NW9       29.99S
DETROIT CITY   CLOUDY    57  50  77 N6        29.98F
DETROIT        CLOUDY    59  49  69 N7        29.96F
FLINT          CLOUDY    55  48  77 N9        30.00F
GROSSE ILE     CLOUDY    61  52  72 NE8       29.94F
HILLSDALE      CLOUDY    55  49  81 N5        29.99R
HOWELL         CLOUDY    53  48  83 N6        29.99S

CITY           SKY/WX    TMP DP  RH WIND       PRES   REMARKS
JACKSON        CLOUDY    57  48  72 NE7       29.98F
LAMBERTVILLE   CLOUDY    57  50  77 NE3       29.98R
LANSING        CLOUDY    58  48  69 N5        30.00F
LAPEER         CLOUDY    53  48  83 N9        29.98F
MASON          CLOUDY    55  47  73 NW8       29.99S
MONROE         CLOUDY    57  52  82 N8        29.95S
MT. CLEMENS    PTSUNNY   57  50  77 N12       29.93F
PONTIAC        CLOUDY    55  47  74 N6        29.96F
PORT HOPE        N/A     54  52  93 CALM      29.96S
PORT HURON     CLOUDY    52  50  93 NW7       29.97S
TRI CITIES     CLOUDY    54  46  74 N7        30.02S
TROY           CLOUDY    57  49  74 NW8       29.98F
SAGINAW HB     DRIZZLE   52  50  93 N7        30.00F
$$
MIZ043>046-050>051-056>058-064>065-071>073-077>080-302000-
SOUTHWEST LOWER MICHIGAN

CITY           SKY/WX    TMP DP  RH WIND       PRES   REMARKS
BATTLE CREEK   CLOUDY    56  46  69 NW3       30.00S
BIG RAPIDS     CLOUDY    53  49  86 N5        30.01S
COLDWATER      CLOUDY    56  49  76 N7        29.99S
FREMONT        CLOUDY    52  46  79 N6        30.02F
HOLLAND        CLOUDY    57  46  66 CALM      30.02F
GRAND RAPIDS   CLOUDY    58  48  69 NW5       30.01S
IONIA          CLOUDY    57  47  69 CALM      29.99F
KALAMAZOO      CLOUDY    54  46  74 NW6       30.01F
LUDINGTON      CLOUDY    52  48  87 N5        30.04S
MARSHALL       CLOUDY    55  48  76 NW3       29.99S
MOUNT PLEASANT CLOUDY    54  46  75 NW3       30.01S
MUSKEGON       CLOUDY    57  46  66 NW6       30.02F
SOUTH HAVEN    CLOUDY    55  47  76 NW5       30.02S
$$
MIZ016>042-302000-
NORTHERN LOWER MICHIGAN

CITY           SKY/WX    TMP DP  RH WIND       PRES   REMARKS
ALPENA         CLOUDY    49  46  90 N12       30.03S
BEAVER ISLAND  CLOUDY    52  46  81 N5        30.06F
BELLAIRE       CLOUDY    52  46  79 CALM      30.05S
CADILLAC       CLOUDY    48  45  89 N7        30.02F
CHARLEVOIX     CLOUDY    51  47  86 N5        30.08F
FRANKFORT      CLOUDY    53  46  78 NE5       30.05S
GAYLORD        CLOUDY    48  45  89 VRB5      30.03F
GRAYLING       CLOUDY    54  47  77 N5        30.03S
HARBOR SPRINGS CLOUDY    51  46  80 NE6       30.05S
HOUGHTON LAKE  CLOUDY    52  46  80 NE6       30.03S
OSCODA         LGT RAIN  50  49  98 N9        30.00S
PELLSTON       CLOUDY    51  45  79 NE6       30.06S
ROGERS CITY    CLOUDY    50  46  87 N3        30.05S
TRAVERSE CITY  CLOUDY    53  45  74 NE9       30.03F
$$
MIZ007>008-015-302000-
EASTERN UPPER MICHIGAN

CITY           SKY/WX    TMP DP  RH WIND       PRES   REMARKS
MACKINAC ISLAN CLOUDY    51  46  83 CALM      30.05S
NEWBERRY       PTSUNNY   54  46  74 NW6       30.04F
S. S. MARIE    CLOUDY    57  44  62 VRB3      30.04F
$$
MIZ004>006-011>014-085-302000-
CENTRAL UPPER MICHIGAN

CITY           SKY/WX    TMP DP  RH WIND       PRES   REMARKS
MANISTIQUE     CLOUDY    55  45  69 N5        30.05F
SAWYER-GWINN   CLOUDY    45  39  81 NE10      30.08F
$$
MIZ001>003-009>011-084-302000-
WESTERN UPPER MICHIGAN

CITY           SKY/WX    TMP DP  RH WIND       PRES   REMARKS
IRON MOUNTAIN  SUNNY     54  41  61 VRB3      30.05F
HOUGHTON       SUNNY     51  38  60 SE8       30.08F
COPPER HARBOR    N/A     49  39  68 E6        30.11F
$$

ABBREVIATIONS USED IN REMARKS
   TC - TEMPERATURE IN CELSIUS
  WCI - WIND CHILL INDEX
   HX - HEAT INDEX
  VSB - VISIBILITY



USA.gov is the U.S. government's official web portal to all federal, state and local government web resources and services.